Weather in Charlston

United States     38°20′51″N   81°37′42″W
В апреле 2022 года жителям России запретили посещать сайт meteo.paraplan.net по решению Генеральной прокуратуры. Аудитория сайта уменьшилась в 10 раз. Владельцы сайта не видят смысла в поддержке погодного сервера в таких условиях. Сайт будет закрыт в октябре.
temp.,
°C
wind,
m/s
gust,
m/s
humid.,
%
clouds,
%
prec.,
mm/h
press.,
hPa
HPBL,
m
4 october, tue
tue423:00+7ne118319 0.0 102410
02:00+6nne11875 0.0 102310
05:00+5nne0181100 0.0 102310
08:00+5nw117795 0.0 102312
11:00+13nnw235086 0.0 1023611
14:00+17nnw3533100 0.0 10201222
17:00+17n353361 0.0 10191298
20:00+9nnw01545 0.0 102010
5 october, wed
wed523:00+8sw00598 0.0 102010
02:00+10sw1153100 0.0 102013
05:00+9w115585 0.0 102012
08:00+9wnw1158100 0.0 102132
11:00+15nnw12459 0.0 1020486
14:00+19nnw23360 0.0 10191058
17:00+20nnw23365 0.0 10181218
20:00+12e005916 0.0 101910
6 october, thu
thu623:00+11sse116559 0.0 101910
02:00+9s11685 0.0 101910
05:00+9s117040 0.0 101910
08:00+8ssw117243 0.0 102018
11:00+17sw2346100 0.0 1019469
14:00+22wsw23370 0.0 10171222
17:00+22wsw24425 0.0 10161375
20:00+15s226416 0.0 101711
7 october, fri
fri723:00+13s35705 0.0 101780
02:00+12ssw29755 0.0 1017175
05:00+11sw257960 0.0 101886
08:00+12ssw277511 0.0 1018201
11:00+17wnw355991 0.0 1020793
14:00+15nnw4572100 0.0 10201011
17:00+10nnw3683100 0.1 1023591
20:00+10nnw148332 0.1 1024390
8 october, sat
sat823:00+6nnw11971 0.0 102620
02:00+4e00950 0.0 102710
05:00+3se00950 0.0 102710
08:00+3sw00930 0.0 102811
11:00+11wnw12520 0.0 1028821
14:00+14wnw23382 0.0 10261455
17:00+15wnw23380 0.0 10241377
20:00+7ssw11610 0.0 102510